CW9546 Weather Reports


time (UTC)temp
C
wind
direction
speed
KPH
gust
KPH
rain 1hr
cm
rain 24hr
cm
rain mn
cm
humidity
%
barometer
mb
20260503200045 25 245 3.2 0.0 0.00 0.00 0.00 55 1012.3
20260503195122 26 110 3.2 0.0 0.00 0.00 0.00 51 1012.5
20260503194055 26 49 1.6 0.0 0.00 0.00 0.00 50 1012.5
20260503193044 25 61 3.2 0.0 0.00 0.00 0.00 51 1012.8
20260503192051 25 101 3.2 0.0 0.00 0.00 0.00 52 1012.8
20260503191042 24 102 3.2 0.0 0.00 0.00 0.00 55 1012.8
20260503190049 23 98 3.2 0.0 0.00 0.00 0.00 56 1012.9
20260503185050 23 102 3.2 0.0 0.00 0.00 0.00 59 1013.2
20260503184040 23 82 3.2 0.0 0.00 0.00 0.00 59 1013.2
20260503183120 23 287 3.2 0.0 0.00 0.00 0.00 61 1013.3
20260503182049 22 316 1.6 0.0 0.00 0.00 0.00 63 1013.3
20260503181041 22 93 3.2 0.0 0.00 0.00 0.00 62 1013.3
20260503180050 22 58 1.6 0.0 0.00 0.00 0.00 63 1013.4
20260503175044 21 103 1.6 0.0 0.00 0.00 0.00 62 1013.6
20260503174054 21 173 1.6 0.0 0.00 0.00 0.00 67 1013.6
20260503173100 20 91 1.6 0.0 0.00 0.00 0.00 67 1013.8
20260503172057 20 72 3.2 0.0 0.00 0.00 0.00 67 1013.8
20260503171034 19 67 1.6 0.0 0.00 0.00 0.00 65 1013.8
20260503131054 10 320 0.0 0.0 0.00 0.00 0.00 79 1013.8
20260503081050 12 320 0.0 0.0 0.00 0.00 0.00 77 1014.4
20260503072032 13 320 0.0 0.0 0.00 0.00 0.03 74 1014.3
20260503071048 13 320 0.0 0.0 0.00 0.00 0.03 73 1014.3
20260503070122 13 320 0.0 0.0 0.00 0.00 0.03 73 1014.2
20260503055057 14 320 0.0 0.0 0.00 0.00 0.03 69 1014.1
20260503054112 14 320 0.0 0.0 0.00 0.00 0.03 69 1014.1
20260503053036 15 320 0.0 0.0 0.00 0.00 0.03 68 1014.2
20260503052052 15 320 0.0 0.0 0.00 0.00 0.03 67 1014.2
20260503051041 15 320 0.0 0.0 0.00 0.00 0.03 67 1014.2
20260503050044 15 320 0.0 0.0 0.00 0.00 0.03 66 1013.9
20260503045043 16 320 0.0 0.0 0.00 0.00 0.03 64 1013.9
20260503044037 16 320 0.0 0.0 0.00 0.00 0.03 62 1013.9
20260503043044 16 320 0.0 0.0 0.00 0.00 0.03 60 1013.8
20260503041041 17 321 0.0 0.0 0.00 0.00 0.03 58 1013.9
20260503035052 18 309 0.0 0.0 0.00 0.00 0.03 56 1013.3
20260503034042 18 309 1.6 0.0 0.00 0.00 0.03 56 1013.3
20260503033040 18 342 1.6 0.0 0.00 0.00 0.03 57 1013.0
20260503032057 18 340 1.6 0.0 0.00 0.00 0.03 57 1012.9
20260503031101 19 347 1.6 0.0 0.00 0.00 0.03 57 1012.9
20260503030132 19 347 1.6 0.0 0.00 0.00 0.03 57 1012.8
20260503025046 20 285 1.6 0.0 0.00 0.00 0.03 59 1012.8
20260503024157 20 307 1.6 0.0 0.00 0.00 0.03 58 1012.8
20260503023038 20 303 1.6 0.0 0.00 0.00 0.03 58 1012.8
20260503022040 20 313 3.2 0.0 0.00 0.00 0.03 57 1012.8
20260503021050 21 283 3.2 0.0 0.00 0.00 0.03 57 1012.8
20260503020038 21 226 3.2 0.0 0.00 0.00 0.03 58 1012.7
20260503015046 21 300 3.2 0.0 0.00 0.00 0.03 57 1012.7
20260503014034 22 286 3.2 0.0 0.00 0.00 0.03 56 1012.7
20260503013037 22 34 3.2 0.0 0.00 0.00 0.03 57 1012.7
20260503011057 22 1 4.8 0.0 0.00 0.00 0.03 56 1012.7
20260503010114 23 234 3.2 0.0 0.00 0.00 0.03 55 1012.7
20260503005046 23 310 1.6 0.0 0.00 0.00 0.03 56 1012.8
20260503004101 23 209 3.2 0.0 0.00 0.00 0.03 55 1012.8
20260503003050 24 356 3.2 0.0 0.00 0.00 0.03 55 1012.8
20260503001043 24 37 3.2 0.0 0.00 0.00 0.03 55 1012.8
20260503000057 23 98 3.2 0.0 0.00 0.00 0.03 55 1012.8
20260502235044 24 274 4.8 0.0 0.00 0.00 0.03 54 1013.0
20260502234038 24 94 3.2 0.0 0.00 0.00 0.03 54 1013.0
20260502233145 24 287 3.2 0.0 0.00 0.00 0.03 54 1013.3
20260502232051 24 23 3.2 0.0 0.00 0.00 0.03 56 1013.4
20260502231032 24 304 3.2 0.0 0.00 0.00 0.03 57 1013.4
20260502230046 24 158 3.2 0.0 0.00 0.00 0.03 58 1013.8
20260502225104 24 221 3.2 0.0 0.00 0.00 0.03 55 1013.8
20260502224050 24 297 3.2 0.0 0.00 0.00 0.03 57 1013.8
20260502223120 24 285 3.2 0.0 0.00 0.00 0.03 55 1014.0
20260502222046 24 276 4.8 0.0 0.00 0.00 0.03 60 1014.2
20260502221029 24 358 4.8 0.0 0.00 0.00 0.03 57 1014.2
20260502220033 24 268 3.2 0.0 0.00 0.00 0.03 56 1014.4
20260502215036 23 352 3.2 0.0 0.00 0.00 0.03 57 1014.4
20260502214032 23 321 3.2 0.0 0.00 0.00 0.03 59 1014.4
20260502212038 23 299 3.2 0.0 0.00 0.00 0.03 58 1014.8
20260502211029 23 266 3.2 0.0 0.00 0.00 0.03 58 1014.8
20260502210039 22 274 3.2 0.0 0.00 0.00 0.03 61 1014.8
20260502205111 22 262 3.2 0.0 0.00 0.00 0.03 59 1014.9
20260502204104 22 269 3.2 0.0 0.00 0.00 0.03 63 1014.9
20260502203042 21 70 3.2 0.0 0.00 0.00 0.03 63 1015.0
20260502202036 21 1 3.2 0.0 0.00 0.00 0.03 63 1015.3
20260502201037 21 331 3.2 0.0 0.00 0.00 0.03 64 1015.3